Regional Weather Roundup
Issued by NWS

Home | Current Version | Previous Version | Graphics & Text | Print | Product List | Glossary On
Versions: 1 2 3 4 5 6 7 8 9 10 11 12 13 14 15 16 17 18 19 20 21 22 23 24 25 26 27 28 29 30 31 32 33 34 35 36 37 38 39 40 41 42 43 44 45 46 47 48 49 50
000
ASUS43 KMKX 261400
RWRWI

WISCONSIN REGIONAL WEATHER ROUNDUP
NATIONAL WEATHER SERVICE MILWAUKEE/SULLIVAN WI
900 AM CDT MON JUN 26 2017

NOTE: "FAIR" INDICATES FEW OR NO CLOUDS BELOW 12,000 FEET WITH NO
SIGNIFICANT WEATHER AND/OR OBSTRUCTIONS TO VISIBILITY.

WIZ001-002-006>008-014>016-023>028-261500-
NORTHWEST WISCONSIN

CITY           SKY/WX    TMP DP  RH WIND       PRES   REMARKS
SUPERIOR ARPT  NOT AVBL
ASHLAND        CLOUDY    51  48  89 NW5       30.13R
HAYWARD        PTSUNNY   52  46  80 N6        30.13F
SIREN          SUNNY     54  46  74 NW10      30.15S
CUMBERLAND     SUNNY     52  45  76 NW10      30.15R
RICE LAKE      SUNNY     54  46  74 W9        30.16R
CHETEK         SUNNY     54  47  77 NW6       30.14R
LADYSMITH      CLOUDY    50  48  92 NW12      30.14S
EAU CLAIRE     SUNNY     56  46  69 NW12      30.14S
MENOMONIE      SUNNY     56  47  72 NW8       30.16S
NEW RICHMOND   SUNNY     56  44  63 N10       30.17S
OSCEOLA        SUNNY     55  46  72 NW7       30.20S
$$

WIZ003>005-009-010-017-018-261500-
NORTH CENTRAL WISCONSIN

CITY           SKY/WX    TMP DP  RH WIND       PRES   REMARKS
MANITOWISH WTR DRIZZLE   46  46 100 NW8       30.05R
ARBOR VITAE    LGT RAIN  48  47  95 NW8       30.04R
WOODRUFF       LGT RAIN  48  47  95 NW8       30.04R
RHINELANDER    LGT RAIN  47  46  97 NW8       30.05R
EAGLE RIVER    DRIZZLE   47  46  97 NW10      30.03R
LAND O LAKES   CLOUDY    47  46  94 NW8       30.04S
PHILLIPS       LGT RAIN  47  46  95 NW10G16   30.09R
TOMAHAWK       NOT AVBL
MEDFORD        LGT RAIN  46  43  90 NW9       30.09S
MERRILL        CLOUDY    48  45  88 NW12G21   30.07S
$$

WIZ029-030-035-036-043>047-261500-
CENTRAL WISCONSIN

CITY           SKY/WX    TMP DP  RH WIND       PRES   REMARKS
WAUSAU         LGT RAIN  50  44  80 NW9       30.06R
MOSINEE        NOT AVBL
MARSHFIELD     MOSUNNY   53  43  68 NW21      30.09S
STEVENS POINT  CLOUDY    49  42  76 W12G17    30.09R
WAUPACA        PTSUNNY   55  44  68 NW13G22   30.08S
WAUTOMA        MOSUNNY   56  45  66 W15G22    30.09S
WISC RAPIDS    PTSUNNY   56  45  66 NW15      30.10F
CAMP DOUGLAS   NOT AVBL
$$

WIZ011>013-019>022-031-037>040-048>050-261500-
NORTHEAST WISCONSIN

CITY           SKY/WX    TMP DP  RH WIND       PRES   REMARKS
ANTIGO         CLOUDY    48  44  85 NW13      30.04R
SHAWANO        CLOUDY    54  46  73 W7G17     30.04R
OCONTO         CLOUDY    54  46  74 W14       30.01S
STURGEON BAY     N/A     53  45  74 W12         N/A
GREEN BAY      PTSUNNY   56  48  74 W17G23    30.04S
MANITOWOC      NOT AVBL
APPLETON       PTSUNNY   54  45  71 W15G21    30.04F
CLINTONVILLE   CLOUDY    52  41  66 NW15G23   30.05S
OSHKOSH        MOSUNNY   56  46  69 W14G22    30.05F
$$

WIZ032>034-041-042-053>061-261500-
SOUTHWEST WISCONSIN

CITY           SKY/WX    TMP DP  RH WIND       PRES   REMARKS
LA CROSSE      SUNNY     63  47  55 N8        30.15R
SPARTA         SUNNY     55  46  71 NW12      30.15R
VIROQUA        SUNNY     55  47  75 NW8       30.15R
BOSCOBEL       SUNNY     62  48  60 NW10      30.14S
PRAIRIE DU CHI SUNNY     59  46  62 W6        30.15R
PLATTEVILLE    SUNNY     59  50  73 NW8       30.15R
$$

WIZ056-057-062-063-064-067-068-261500-
SOUTH CENTRAL WISCONSIN

CITY           SKY/WX    TMP DP  RH WIND       PRES   REMARKS
REEDSBURG      SUNNY     56  47  72 NW13      30.12S
BARABOO/DELLS  SUNNY     55  45  68 NW9       30.12R
LONE ROCK      SUNNY     59  47  64 NW9       30.14R
MINERAL POINT  SUNNY     59  50  72 W7        30.13S
MADISON        MOSUNNY   59  49  69 NW9       30.11R
MIDDLETON      SUNNY     58  50  74 NW10      30.12R
WATERTOWN      NOT AVBL
MONROE         SUNNY     57  45  62 W12       30.13R
JANESVILLE     MOSUNNY   63  50  63 W6        30.11S
$$

WIZ051-052-058>065-066-070>072-261500-
SOUTHEAST WISCONSIN

CITY           SKY/WX    TMP DP  RH WIND       PRES   REMARKS
MILWAUKEE      MOSUNNY   62  46  55 W13       30.08F
WAUKESHA       SUNNY     57  46  67 W10       30.11S
MILWAUKEE/TIMM MOSUNNY   59  45  58 W12G20    30.08F
RACINE         SUNNY     62  47  57 W9        30.10F
KENOSHA        MOSUNNY   62  48  60 W9        30.10S
FOND DU LAC    SUNNY     57  45  64 W16       30.07S
SHEBOYGAN      MOSUNNY   58  48  69 NW15G28   30.05R
WEST BEND      SUNNY     55  45  67 W13       30.07S
JUNEAU         SUNNY     56  44  64 W7G18     30.09S
$$

LSZ147-162-261500-
LAKE SUPERIOR

STATION/POSITION TIME  TEMP    WIND        PRES    WAVE
                       AIR SEA DIR/SP/G            HT/PER
                 (UTC) (F)     (DEG/KT/KT) (MB)    (FT/S)
W MID LAKE BUOY  1250   44 39  280/ 12/ 16 1018.1R   2/ 4
DEVILS ISLAND    1300   49     260/  8/  9 1019.6R
SAXON HARBOR     1340   52     360/ 14/ 17 1019.3R
$$

LMZ867-665-643>646-261500-
LAKE MICHIGAN

STATION/POSITION TIME  TEMP    WIND        PRES    WAVE
                       AIR SEA DIR/SP/G            HT/PER
                 (UTC) (F)     (DEG/KT/KT) (MB)    (FT/S)
CHAMBERS ISLAND  1340   56     280/  5/ 13 1014.9S
S GREEN BAY BUOY 1330   54     280/ 14/ 17 1015.8F
N MID LAKE BUOY  1250   54 56  250/ 12/ 16 1014.8S   2/ 4
NORTHPORT PIER   1340   54     300/  9/ 16 1014.9S
KEWAUNEE LAKESHO 1330   56     290/  9/ 14 1015.8R
SHEBOYGAN LAKESH 1300   55     260/ 13/ 16 1017.2F
PORT WASHINGTON  1330   60     290/ 10/ 17 1018.6F
ATWATER BUOY     1209   57 56  270/ 10/ 12 1018.7R
MILWAUKEE LAKESH 1340   60     290/ 12/ 17   N/A
S MID LAKE BUOY  1250   59 61  310/ 16/ 19 1018.6S   3/ 4
KENOSHA   LAKESH 1300   61     270/  8/ 12 1019.0
$$

TC  - TEMPERATURE IN CELSIUS
VSB - VISIBILITY IN STATUTE MILES
WCI - WIND CHILL INDEX
HX  - HEAT INDEX





USA.gov is the U.S. government's official web portal to all federal, state and local government web resources and services.